Location: Bridalveil Moraine
(37.7171°N, 119.6568°W)
Time: 09:02:04
(UTC+00:00)

USA 234 - Pass Details

Date: 13 June 2024
Orbit: 1100 x 1107 km, 123.0° (Epoch: 08 July)

Event Time Altitude Azimuth Distance (km) Brightness Sun altitude
Rises 11:57:45 0° 126° (SE) 3,915 6.4 -7.2°
Reaches altitude 10° 12:00:14 10° 124° (SE) 2,958 5.8 -6.8°
Maximum altitude 12:06:44 73° 41° (NE) 1,153 3.7 -5.7°
Drops below altitude 10° 12:13:15 10° 319° (NW) 2,965 5.5 -4.7°
Sets 12:15:45 0° 317° (NW) 3,924 6.1 -4.3°
